Tracking 28794 objects as of 19-Apr-2024
HD Live streaming from Space Station
objects crossing your sky now

COSMOS 2554

Track COSMOS 2554 now!
10-day predictions


NORAD ID: 52202
Int'l Code: 2022-036A
Perigee: 908.4 km
Apogee: 916.6 km
Inclination: 67.1 °
Period: 103.1 minutes
Semi major axis: 7283 km
RCS: Unknown
Launch date: April 7, 2022
Source: Commonwealth of Independent States (former USSR) (CIS)
Launch site: PLESETSK MISSILE AND SPACE COMPLEX (PKMTR)
Your satellite tracking list
Your tracking list is empty




NASA's NSSDC Master Catalog

Two Line Element Set (TLE):
1 52202U 22036A   24110.84911477  .00000037  00000-0  80793-4 0  9994
2 52202  67.1497 344.7661 0005644 283.5367  76.5088 13.96674275103863
Source of the keplerian elements: AFSPC